Other Public Products
Issued by NWS Grand Forks, ND

Home | Current Version | Previous Version | Text Only | Print | Product List | Glossary Off
Versions: 1 2 3 4 5 6 7 8 9 10 11 12 13 14 15 16 17 18 19 20 21 22 23 24 25 26 27 28 29 30 31 32 33 34 35 36 37 38 39 40 41 42 43 44 45 46 47 48 49 50

690
FPUS83 KFGF 181510
OPUFGF
PRAIRIE TO PINES WEATHER ROUNDUP
NATIONAL WEATHER SERVICE EASTERN NORTH DAKOTA/GRAND FORKS ND
900 AM CST SAT NOV 18 2017

 **SATELLITE DATA USED TO AUGMENT SKY COVER AT AUTOMATED STATIONS**
 *****  WEATHER ACROSS EASTERN NORTH DAKOTA  *****

CITY           SKY/WX    TMP DP  RH WIND       PRES   REMARKS
GRAND FORKS    FAIR      17  11  77 NW13      30.00R WCI   4
GRND FORKS AFB MOCLDY    16   9  73 NW13      30.00R WCI   3
GRND FORKS NWS   N/A     16 N/A N/A NW13        N/A  WCI   2
BUXTON         NOT AVBL
DEVILS LAKE    FAIR      13   9  84 NW22      29.99R WCI  -6
FARGO          FAIR      21  13  71 NW18      30.00R WCI   6
WAHPETON ARPT  NOT AVBL
$$

 *****  WEATHER ACROSS CENTRAL AND WESTERN NORTH DAKOTA  *****

CITY           SKY/WX    TMP DP  RH WIND       PRES   REMARKS
JAMESTOWN      FAIR      18  11  74 NW20      30.01R WCI   2
BISMARCK       FAIR      22  17  81 W9        30.10R WCI  12
MINOT          FAIR      15   7  70 W22G28    30.06R WCI  -3
MINOT AFB      FAIR      13   6  73 NW18      30.06R WCI  -4
GARRISON         N/A     13   9  84 NW13      30.08R WCI  -2
WILLISTON      FAIR      14   9  80 W8        30.13R WCI   3
DICKINSON      FAIR      14  10  84 W8        30.08R WCI   3
HETTINGER      FAIR      15  10  80 W10       30.12R WCI   2
$$

 *****  OTHER OBSERVATIONS NORTHEAST NORTH DAKOTA  *****

CITY           SKY/WX    TMP DP  RH WIND       PRES   REMARKS
WALHALLA       FAIR      14   9  79 NW16G23   29.99R WCI  -2
LANGDON        PTSUNNY   12  10  92 NW20      29.95S WCI  -6
CAVALIER       CLOUDY    16   9  73 NW18      29.98R WCI  -1
GRAFTON        CLOUDY    14  10  85 NW12      30.02R WCI   0
CANDO          FAIR      12  10  92 W16       30.02R WCI  -4
FORT TOTTEN      N/A     15   9  78 NW10      29.95  WCI   2
ROLLA          FAIR      10   3  72 NW16      29.98R WCI  -7
RUGBY          LGT SNOW  10   9  92 NW17      30.03R WCI  -7
 ***** THE ABOVE OBSERVATIONS ARE NON NWS ARE NOT QUALITY
        CONTROLLED AND MAY MIS-REPORT RAIN FOR SNOW...
$$

 *****  OTHER OBSERVATIONS SOUTHEAST NORTH DAKOTA *****

CITY           SKY/WX    TMP DP  RH WIND       PRES   REMARKS
COOPERSTOWN    FAIR      16  12  86 NW21G28   29.99R WCI  -2
VALLEY CITY    FAIR      16  14  93 NW15      30.02R WCI   1
OAKES            N/A     19  14  79 NW24G30   30.01R WCI   2
GWINNER          N/A     21  14  73 NW16G24   30.00R WCI   7
SHEYENNE NWR     N/A     22  14  71 NW12      29.95S WCI  10
BUFFALO        NOT AVBL
WYNDMERE       NOT AVBL
 ***** THE ABOVE OBSERVATIONS ARE NON NWS ARE NOT QUALITY
       CONTROLLED AND MAY MIS-REPORT RAIN FOR SNOW...
$$

  *****  WEATHER ACROSS NORTHERN MINNESOTA  *****

CITY           SKY/WX    TMP DP  RH WIND       PRES   REMARKS
FLAG ISLAND    PTSUNNY   16  10  79 NW15      29.87R WCI   1
WARROAD        LGT SNOW  16  10  79 W8        29.91R WCI   5
ROSEAU         CLOUDY    16  10  79 W7        29.92R WCI   6
HALLOCK        FLURRIES  16  12  86 NW14      29.97R WCI   1
THF RVR FALLS  CLOUDY    16  11  80 NW13      29.95R WCI   2
HALSTAD        NOT AVBL
FOSSTON        CLOUDY    14  10  85 NW10      29.93R WCI   1
BAUDETTE       CLOUDY    17  13  84 W9        29.86R WCI   6
WASKISH        CLOUDY    18  12  79 NW9       29.87R WCI   6
CROOKSTON      FAIR      18  12  79 NW15G23   29.98R WCI   3
$$
  *****  WEATHER ACROSS CENTRAL AND WEST MINNESOTA  *****

CITY           SKY/WX    TMP DP  RH WIND       PRES   REMARKS
BEMIDJI        CLOUDY    17  13  87 W14       29.87R WCI   2
PARK RAPIDS    PTSUNNY   20  13  74 NW14      29.86R WCI   7
WADENA         FAIR      19  16  86 NW13      29.87S WCI   7
DETROIT LAKES  PTSUNNY   19  16  86 NW15G23   29.93R WCI   5
MOORHEAD       FAIR      19  10  68 NW18      30.00R WCI   4
FERGUS FALLS   CLOUDY    19  16  86 NW17      29.98R WCI   4
ELBOW LAKE     PTSUNNY   20  17  87 W14       29.94R FOG     WCI   7
MORRIS MN      FAIR      21  18  86 NW22G28   29.91R WCI   5
STAPLES        CLOUDY    19  16  86 NW10      29.87R WCI   8
WHEATON        PTSUNNY   25  18  74 NW15      29.98R WCI  12
$$
  *****  WEATHER ELSEWHERE ACROSS MINNESOTA  *****

CITY           SKY/WX    TMP DP  RH WIND       PRES   REMARKS
DULUTH         FAIR      22  20  92 NW13      29.74R WCI  10
INTRNTL FALLS  CLOUDY    19  14  81 NW7       29.82S WCI  10
ELY            FAIR      21  18  86 NW7       29.77S WCI  13
CLOQUET        FAIR      23  18  80 NW13G20   29.76S WCI  11
BRAINERD       PTSUNNY   23  16  74 NW10      29.84S WCI  12
HIBBING        FAIR      18  14  84 NW9       29.80S WCI   7
ALEXANDRIA     FAIR      22  17  81 NW15      29.89R WCI   9
SAINT CLOUD    FAIR      27  22  81 NW14      29.84R WCI  16
MINNEAPOLIS    PTSUNNY   32  28  85 N10       29.80R WCI  24
$$

  *****  WEATHER ACROSS SOUTH DAKOTA  *****

CITY           SKY/WX    TMP DP  RH WIND       PRES   REMARKS
SIOUX FALLS    FAIR      34  22  61 NW12      29.94R
BROOKINGS      FAIR      26  20  77 NW16      29.94R WCI  14
WATERTOWN      CLOUDY    24  18  77 NW12      29.94R WCI  13
HURON          CLOUDY    27  19  72 N17       30.03R WCI  14
SISSETON         N/A     24  17  74 NW21G28   29.97R WCI   9
ABERDEEN       FAIR      24  17  74 NW22G28   30.05R WCI   9
MITCHELL       FAIR      30  22  72 NW16      30.02R WCI  19
PIERRE         FAIR      29  25  85 NW16      30.10R WCI  17
MOBRIDGE       FAIR      22  15  75 NW16      30.07R WCI   8
RAPID CITY     FAIR      36  18  48 NW14      30.12R
$$

  *****  SOME WEATHER IN NEARBY STATES *****

CITY           SKY/WX    TMP DP  RH WIND       PRES   REMARKS
GLASGOW MT     CLOUDY    14  11  87 CALM      30.12R
GREAT FALLS MT FAIR      33  18  53 SW22      30.11R WCI  21
CHEYENNE WY    FAIR      23  11  60 SW5       30.19R WCI  17
SCOTTSBLUFF NE FAIR      29  20  69 NW14      30.21R WCI  18
OMAHA NE       PTSUNNY   38  29  70 NW21G29   29.89R
DES MOINES IA  CLOUDY    38  35  89 NW16G25   29.73R
DAVENPORT IA   LGT RAIN  38  36  92 N22G29    29.56S
CHICAGO IL     LGT RAIN  42  38  85 N16G25    29.48R FOG
EAU CLAIRE WI  CLOUDY    35  31  85 N10       29.73R
LA CROSSE WI   CLOUDY    37  34  89 N17       29.69S
$$

  *****  SOME NATIONAL WEATHER *****

CITY           SKY/WX    TMP DP  RH WIND       PRES   REMARKS
LA GUARDIA NY  CLOUDY    46  29  51 SW8       29.92F
RALEIGH NC     PTSUNNY   54  41  61 SW12      30.01F
ATLANTA GA     PTSUNNY   55  51  86 S7        30.00S
NEW ORLEANS LA PTSUNNY   76  69  79 S13       29.94S
OKLAHOMA CITY  PTSUNNY   52  39  61 N28G39    29.93R
ALBUQUERQUE NM FAIR      37  12  35 N10G22    30.34R
SALT LAKE CITY FAIR      31  21  66 SE9       30.46R WCI  23
LOS ANGELES CA FAIR      58  55  90 VRB3      30.14R
BOISE ID       FAIR      31  23  72 SE10      30.40R WCI  22
SEATTLE WA     CLOUDY    46  38  73 S9        30.29S
$$

*** WEATHER ACROSS MANITOBA...SASKATCHEWAN AND ONTARIO ***
                ***ONTARIO***

CITY           SKY/WX    TMP DP  RH WIND       PRES   REMARKS
GERALDTON      CLOUDY    21  21 100 N13       29.67S FOG     WCI   9
THUNDER BAY    PTSUNNY   27  23  86 N5        29.73S WCI  21
SIOUX LOOKOUT  FLURRIES  16  12  86 NW5       29.76S WCI   9
TORONTO        CLOUDY    43  39  87 SE5       29.52F FOG
BIG TROUT LK   FLURRIES  12   7  79 W9        29.69R WCI   0
PICKLE LAKE    LGT SNOW  14  10  85 NW5       29.73S WCI   6
DRYDEN         FLURRIES  12  10  92 W7        29.78R WCI   2
KENORA         FLURRIES  16  12  86 NW8       29.82R WCI   5
$$
                *** MANITOBA***

CITY           SKY/WX    TMP DP  RH WIND       PRES   REMARKS
BRANDON        PTCLDY     5   0  78 W16       29.99R WCI -14
DAUPHIN        CLEAR      7   0  72 W21       29.96R WCI -13
ISLAND LAKE    FLURRIES   9   1  72 W17G30    29.77R WCI -10
PILOT MOUND      N/A      9   3  78 NW13G18     N/A  WCI  -7
THE PAS        FLURRIES  10   3  72 W16G22    29.86S WCI  -7
THOMPSON       PTCLDY     3  -6  66 W14       29.69R WCI -15
WINNIPEG       CLOUDY    14   7  73 NW15      29.97R WCI  -1
LYNN LAKE      PTCLDY     5   0  78 W15G28    29.67R WCI -13
CHURCHILL      CRYSTALS  -2  -8  78 SW14      29.48R WCI -21
$$
                ***SASKATCHEWAN***

CITY           SKY/WX    TMP DP  RH WIND       PRES   REMARKS
ESTEVAN        FLURRIES   9   5  85 W9        30.08R WCI  -5
KINDERSLEY     CRYSTALS  -4  -9  77 SW9       29.97S FOG     WCI -20
LLOYDMINSTER   MOCLDY     1   0  92 SE5       29.90R WCI  -8
PRINCE ALBERT  MOCLDY    -4  -9  77 W7        30.01R WCI -18
REGINA         MOCLDY     1  -2  85 SW8       30.05R WCI -12
YORKTON        PTCLDY     0  -4  85 SW8       29.99R WCI -15
N. BATTLEFORD  PTCLDY     0  -6  78 SE5       29.99F WC



USA.gov is the U.S. government's official web portal to all federal, state and local government web resources and services.